"Pseudo-MPEC" for JNS006

Created 2018 Apr 18 8:18:07 UT using Find_Orb

Click here for an explanation of pseudo-MPECs

 
 Astrometry: 
     JNS006   C2018 04 10-iAstrometrynN0KCredacted;@U'JX%bnRrJ7^$FA(9E6F2w'UkQ66
     JNS006   C2018 04 10Uepx+%/^^q,kDW(([)_V1R!!RgxYCi4bsee:gn@FW$_)0PMNEOCPQ66

Station data:
(Q66) Siding Spring-Janess-G, JAXA  (S31.273299 E149.064250)  Australia/NSW.

Orbital elements:  JNS006
   Perihelion 2018 Apr 5.053816 +/- 26.9 TT =  1:17:29 (JD 2458213.553816)
Epoch 2018 Apr 10.0 TT = JDT 2458218.5   Earth MOID: 0.0036   AutoNEOCP
M   4.24591 +/- 37                  (J2000 ecliptic)
n   0.85842330 +/- 0.587            Peri.  333.71910 +/- 90
a   1.09648252 +/- 0.499            Node   220.81761 +/- 36
e   0.0832202 +/- 0.234             Incl.    0.33937 +/- 26
P   1.15/419.37d           H 28.4   G  0.15   U 12.4  SR
q 1.00523297 +/- 0.337    Q 1.18773208 +/- 26.3
From 2 observations 2018 Apr. 10 (3.0 min); mean residual 0".00
Residuals in arcseconds: 
180410 Q66  .00   .00     180410 Q66  .00   .00     

Ephemerides (geocentric):
Date (UTC) HH   RA              Dec         delta   r     elong  mag " sig PA
---- -- -- --  ------------   ------------  ------ ------ -----  --- ---- ---
2018 04 18 08  15 45 58.575   -35 45 59.79  393340 1.0062 142.7 17.1  23d   3
2018 04 18 09  15 50 05.561   -35 39 04.93  393395 1.0062 142.2 17.1  23d   3
2018 04 18 10  15 54 11.697   -35 31 38.68  393501 1.0062 141.6 17.1  24d   3
2018 04 18 11  15 58 16.870   -35 23 41.46  393660 1.0062 141.0 17.1  24d   3
2018 04 18 12  16 02 20.972   -35 15 13.72  393871 1.0062 140.3 17.1  24d   3
2018 04 18 13  16 06 23.896   -35 06 15.98  394135 1.0062 139.7 17.1  24d   3
2018 04 18 14  16 10 25.541   -34 56 48.77  394450 1.0062 139.1 17.2  24d   3
2018 04 18 15  16 14 25.807   -34 46 52.70  394817 1.0062 138.5 17.2  24d   3
2018 04 18 16  16 18 24.599   -34 36 28.37  395235 1.0061 137.9 17.2  24d   3
2018 04 18 17  16 22 21.827   -34 25 36.47  395705 1.0061 137.2 17.2  24d   3
2018 04 18 18  16 26 17.405   -34 14 17.67  396226 1.0061 136.6 17.2  24d   3
2018 04 18 19  16 30 11.251   -34 02 32.70  396798 1.0061 136.0 17.3  25d   3
2018 04 18 20  16 34 03.287   -33 50 22.31  397421 1.0061 135.3 17.3  25d   3
2018 04 18 21  16 37 53.441   -33 37 47.28  398094 1.0061 134.7 17.3  25d   3
2018 04 18 22  16 41 41.643   -33 24 48.40  398817 1.0061 134.1 17.3  25d   3
2018 04 18 23  16 45 27.832   -33 11 26.50  399590 1.0061 133.4 17.4  25d   3
2018 04 19 00  16 49 11.946   -32 57 42.40  400412 1.0061 132.8 17.4  25d   3
2018 04 19 01  16 52 53.934   -32 43 36.96  401283 1.0061 132.1 17.4  25d   3
2018 04 19 02  16 56 33.744   -32 29 11.02  402202 1.0061 131.5 17.4  26d   3
2018 04 19 03  17 00 11.331   -32 14 25.46  403169 1.0061 130.9 17.4  26d   3
2018 04 19 04  17 03 46.655   -31 59 21.15  404185 1.0061 130.2 17.5  26d   3
2018 04 19 05  17 07 19.680   -31 43 58.96  405247 1.0061 129.6 17.5  26d   3
2018 04 19 06  17 10 50.373   -31 28 19.78  406356 1.0061 129.0 17.5  26d   4
2018 04 19 07  17 14 18.706   -31 12 24.47  407512 1.0060 128.3 17.5  26d   4
2018 04 19 08  17 17 44.655   -30 56 13.91  408713 1.0060 127.7 17.6  26d   4
2018 04 19 09  17 21 08.201   -30 39 48.97  409960 1.0060 127.1 17.6  27d   4
2018 04 19 10  17 24 29.327   -30 23 10.51  411251 1.0060 126.4 17.6  27d   4
2018 04 19 11  17 27 48.019   -30 06 19.38  412587 1.0060 125.8 17.6  27d   4
2018 04 19 12  17 31 04.269   -29 49 16.43  413966 1.0060 125.2 17.7  27d   4
2018 04 19 13  17 34 18.070   -29 32 02.47  415388 1.0060 124.6 17.7  27d   4
2018 04 19 14  17 37 29.420   -29 14 38.33  416854 1.0060 123.9 17.7  27d   4
2018 04 19 15  17 40 38.317   -28 57 04.81  418361 1.0060 123.3 17.7  27d   4
2018 04 19 16  17 43 44.766   -28 39 22.70  419909 1.0060 122.7 17.8  28d   4
2018 04 19 17  17 46 48.770   -28 21 32.75  421499 1.0060 122.1 17.8  28d   4
2018 04 19 18  17 49 50.337   -28 03 35.73  423129 1.0060 121.5 17.8  28d   4
2018 04 19 19  17 52 49.478   -27 45 32.37  424798 1.0060 120.9 17.8  28d   4
2018 04 19 20  17 55 46.204   -27 27 23.36  426507 1.0059 120.3 17.9  28d   4
2018 04 19 21  17 58 40.530   -27 09 09.42  428255 1.0059 119.7 17.9  28d   4
2018 04 19 22  18 01 32.471   -26 50 51.22  430040 1.0059 119.1 17.9  29d   4
2018 04 19 23  18 04 22.044   -26 32 29.39  431863 1.0059 118.6 17.9  29d   4
2018 04 20 00  18 07 09.269   -26 14 04.58  433722 1.0059 118.0 18.0  29d   4
2018 04 20 01  18 09 54.167   -25 55 37.40  435618 1.0059 117.4 18.0  29d   4
2018 04 20 02  18 12 36.758   -25 37 08.43  437549 1.0059 116.8 18.0  29d   4
2018 04 20 03  18 15 17.066   -25 18 38.23  439516 1.0059 116.3 18.1  29d   4
2018 04 20 04  18 17 55.114   -25 00 07.36  441516 1.0059 115.7 18.1  30d   4
2018 04 20 05  18 20 30.929   -24 41 36.34  443551 1.0059 115.2 18.1  30d   4
2018 04 20 06  18 23 04.534   -24 23 05.67  445618 1.0059 114.6 18.1  30d   4
2018 04 20 07  18 25 35.958   -24 04 35.84  447719 1.0058 114.1 18.2  30d   4